Time,TemperatureF,DewpointF,PressureIn,WindDirection,WindDirectionDegrees,WindSpeedMPH,WindSpeedGustMPH,Humidity,HourlyPrecipIn,Conditions,Clouds,dailyrainin,SoftwareType,DateUTC
2013-03-03 00:00:00,18.3,15.1,29.91,WNW,301,9.0,14.0,87,0.00,,,0.00,meteohub,2013-03-03 05:00:00,
2013-03-03 00:01:00,18.3,14.9,29.91,WNW,301,0.0,12.0,86,0.00,,,0.00,meteohub,2013-03-03 05:01:00,
2013-03-03 00:06:00,18.1,14.7,29.91,WNW,301,0.0,15.0,86,0.00,,,0.00,meteohub,2013-03-03 05:06:00,
2013-03-03 00:11:00,18.1,14.4,29.91,WNW,301,0.0,15.0,85,0.00,,,0.00,meteohub,2013-03-03 05:11:00,
2013-03-03 00:16:00,18.0,14.0,29.91,WNW,301,1.0,11.0,84,0.00,,,0.00,meteohub,2013-03-03 05:16:00,
2013-03-03 00:21:00,17.8,13.5,29.91,WNW,301,1.0,11.0,83,0.00,,,0.00,meteohub,2013-03-03 05:21:00,
2013-03-03 00:26:00,17.8,13.3,29.91,WNW,301,3.0,8.0,82,0.00,,,0.00,meteohub,2013-03-03 05:26:00,
2013-03-03 00:31:00,17.6,13.3,29.91,WNW,301,3.0,8.0,83,0.00,,,0.00,meteohub,2013-03-03 05:31:00,
2013-03-03 00:36:00,17.4,13.5,29.90,WNW,301,1.0,9.0,84,0.00,,,0.00,meteohub,2013-03-03 05:36:00,
2013-03-03 00:41:00,17.4,13.5,29.91,WNW,301,2.0,9.0,84,0.00,,,0.00,meteohub,2013-03-03 05:41:00,
2013-03-03 00:46:00,17.4,13.5,29.91,WNW,301,0.0,9.0,84,0.00,,,0.00,meteohub,2013-03-03 05:46:00,
2013-03-03 00:51:00,17.4,13.5,29.91,WNW,301,0.0,9.0,84,0.00,,,0.00,meteohub,2013-03-03 05:51:00,
2013-03-03 00:56:00,17.2,12.9,29.90,WNW,301,3.0,14.0,83,0.00,,,0.00,meteohub,2013-03-03 05:56:00,
2013-03-03 01:01:00,17.2,12.9,29.91,WNW,301,5.0,14.0,83,0.00,,,0.00,meteohub,2013-03-03 06:01:00,
2013-03-03 01:06:00,17.2,12.7,29.90,WNW,301,4.0,14.0,82,0.00,,,0.00,meteohub,2013-03-03 06:06:00,
2013-03-03 01:11:00,17.1,12.7,29.91,WNW,301,0.0,15.0,83,0.00,,,0.00,meteohub,2013-03-03 06:11:00,
2013-03-03 01:16:00,17.1,12.7,29.91,WNW,301,1.0,15.0,83,0.00,,,0.00,meteohub,2013-03-03 06:16:00,
2013-03-03 01:21:00,17.1,13.1,29.91,WNW,301,0.0,7.0,84,0.00,,,0.00,meteohub,2013-03-03 06:21:00,
2013-03-03 01:26:00,16.9,12.9,29.91,WNW,301,0.0,12.0,84,0.00,,,0.00,meteohub,2013-03-03 06:26:00,
2013-03-03 01:31:00,16.9,12.9,29.91,WNW,301,0.0,12.0,84,0.00,,,0.00,meteohub,2013-03-03 06:31:00,
2013-03-03 01:36:00,16.9,12.9,29.91,WNW,301,0.0,8.0,84,0.00,,,0.00,meteohub,2013-03-03 06:36:00,
2013-03-03 01:41:00,16.9,12.6,29.91,WNW,301,0.0,13.0,83,0.00,,,0.00,meteohub,2013-03-03 06:41:00,
2013-03-03 01:46:00,16.7,12.7,29.91,WNW,301,0.0,13.0,84,0.00,,,0.00,meteohub,2013-03-03 06:46:00,
2013-03-03 01:51:00,16.5,12.6,29.91,WNW,301,0.0,5.0,84,0.00,,,0.00,meteohub,2013-03-03 06:51:00,
2013-03-03 01:56:00,16.5,12.7,29.91,WNW,301,1.0,5.0,85,0.00,,,0.00,meteohub,2013-03-03 06:56:00,
2013-03-03 02:01:00,16.5,12.6,29.91,WNW,301,0.0,9.0,84,0.00,,,0.00,meteohub,2013-03-03 07:01:00,
2013-03-03 02:06:00,16.3,12.4,29.91,WNW,301,2.0,9.0,84,0.00,,,0.00,meteohub,2013-03-03 07:06:00,
2013-03-03 02:11:00,16.3,12.6,29.91,WNW,301,0.0,7.0,85,0.00,,,0.00,meteohub,2013-03-03 07:11:00,
2013-03-03 02:16:00,16.3,12.6,29.91,WNW,301,2.0,7.0,85,0.00,,,0.00,meteohub,2013-03-03 07:16:00,
2013-03-03 02:21:00,16.3,12.6,29.91,WNW,301,1.0,7.0,85,0.00,,,0.00,meteohub,2013-03-03 07:21:00,
2013-03-03 02:26:00,16.2,12.4,29.91,WNW,301,0.0,7.0,85,0.00,,,0.00,meteohub,2013-03-03 07:26:00,
2013-03-03 02:31:00,16.2,12.7,29.91,WNW,301,2.0,8.0,86,0.00,,,0.00,meteohub,2013-03-03 07:31:00,
2013-03-03 02:37:00,16.2,12.4,29.91,WNW,301,4.0,8.0,85,0.00,,,0.00,meteohub,2013-03-03 07:37:00,
2013-03-03 02:42:00,16.2,12.4,29.91,WNW,301,0.0,10.0,85,0.00,,,0.00,meteohub,2013-03-03 07:42:00,
2013-03-03 02:47:00,16.2,12.4,29.91,WNW,301,0.0,10.0,85,0.00,,,0.00,meteohub,2013-03-03 07:47:00,
2013-03-03 02:52:00,16.2,12.4,29.91,WNW,301,0.0,10.0,85,0.00,,,0.00,meteohub,2013-03-03 07:52:00,
2013-03-03 02:57:00,16.2,12.7,29.91,WNW,301,0.0,8.0,86,0.00,,,0.00,meteohub,2013-03-03 07:57:00,
2013-03-03 03:02:00,16.2,12.7,29.90,WNW,301,0.0,8.0,86,0.00,,,0.00,meteohub,2013-03-03 08:02:00,
2013-03-03 03:07:00,16.2,12.9,29.90,WNW,301,0.0,6.0,87,0.00,,,0.00,meteohub,2013-03-03 08:07:00,
2013-03-03 03:12:00,16.2,12.9,29.90,WNW,301,0.0,6.0,87,0.00,,,0.00,meteohub,2013-03-03 08:12:00,
2013-03-03 03:17:00,16.2,12.7,29.90,WNW,301,0.0,6.0,86,0.00,,,0.00,meteohub,2013-03-03 08:17:00,
2013-03-03 03:22:00,16.0,12.6,29.90,WNW,301,0.0,9.0,86,0.00,,,0.00,meteohub,2013-03-03 08:22:00,
2013-03-03 03:27:00,16.0,12.7,29.90,WNW,301,0.0,9.0,87,0.00,,,0.00,meteohub,2013-03-03 08:27:00,
2013-03-03 03:32:00,16.0,12.7,29.90,WNW,301,0.0,9.0,87,0.00,,,0.00,meteohub,2013-03-03 08:32:00,
2013-03-03 03:37:00,16.0,12.7,29.90,WNW,301,3.0,7.0,87,0.00,,,0.00,meteohub,2013-03-03 08:37:00,
2013-03-03 03:42:00,16.0,12.7,29.90,WNW,301,0.0,10.0,87,0.00,,,0.00,meteohub,2013-03-03 08:42:00,
2013-03-03 03:47:00,16.0,13.1,29.89,WNW,301,0.0,10.0,88,0.00,,,0.00,meteohub,2013-03-03 08:47:00,
2013-03-03 03:52:00,15.8,12.6,29.89,WNW,301,0.0,10.0,87,0.00,,,0.00,meteohub,2013-03-03 08:52:00,
2013-03-03 03:57:00,15.6,12.4,29.89,WNW,301,2.0,9.0,87,0.00,,,0.00,meteohub,2013-03-03 08:57:00,
2013-03-03 04:02:00,15.6,12.4,29.89,WNW,301,0.0,7.0,87,0.00,,,0.00,meteohub,2013-03-03 09:02:00,
2013-03-03 04:07:00,15.6,12.4,29.89,WNW,301,0.0,7.0,87,0.00,,,0.00,meteohub,2013-03-03 09:07:00,
2013-03-03 04:12:00,15.6,12.4,29.89,WNW,301,0.0,7.0,87,0.00,,,0.00,meteohub,2013-03-03 09:12:00,
2013-03-03 04:17:00,15.6,12.4,29.89,WNW,301,0.0,5.0,87,0.00,,,0.00,meteohub,2013-03-03 09:17:00,
2013-03-03 04:22:00,15.6,12.4,29.89,WNW,301,0.0,7.0,87,0.00,,,0.00,meteohub,2013-03-03 09:22:00,
2013-03-03 04:27:00,15.4,12.2,29.89,WNW,301,2.0,9.0,87,0.00,,,0.00,meteohub,2013-03-03 09:27:00,
2013-03-03 04:32:00,15.6,12.4,29.89,WNW,301,1.0,10.0,87,0.00,,,0.00,meteohub,2013-03-03 09:32:00,
2013-03-03 04:37:00,15.4,12.2,29.90,WNW,301,0.0,10.0,87,0.00,,,0.00,meteohub,2013-03-03 09:37:00,
2013-03-03 04:42:00,15.4,12.2,29.90,WNW,301,4.0,10.0,87,0.00,,,0.00,meteohub,2013-03-03 09:42:00,
2013-03-03 04:47:00,15.4,12.2,29.90,WNW,301,2.0,13.0,87,0.00,,,0.00,meteohub,2013-03-03 09:47:00,
2013-03-03 04:52:00,15.4,12.0,29.90,WNW,301,0.0,13.0,86,0.00,,,0.00,meteohub,2013-03-03 09:52:00,
2013-03-03 04:57:00,15.4,12.0,29.90,WNW,301,0.0,9.0,86,0.00,,,0.00,meteohub,2013-03-03 09:57:00,
2013-03-03 05:02:00,15.3,11.8,29.90,WNW,301,5.0,7.0,86,0.00,,,0.00,meteohub,2013-03-03 10:02:00,
2013-03-03 05:07:00,15.3,11.5,29.90,WNW,301,0.0,9.0,85,0.00,,,0.00,meteohub,2013-03-03 10:07:00,
2013-03-03 05:12:00,15.3,11.8,29.90,WNW,301,13.0,14.0,86,0.00,,,0.00,meteohub,2013-03-03 10:12:00,
2013-03-03 05:17:00,15.3,11.5,29.90,WNW,301,1.0,17.0,85,0.00,,,0.00,meteohub,2013-03-03 10:17:00,
2013-03-03 05:22:00,15.1,11.1,29.90,WNW,301,3.0,17.0,84,0.00,,,0.00,meteohub,2013-03-03 10:22:00,
2013-03-03 05:27:00,14.7,10.8,29.90,WNW,301,3.0,17.0,84,0.00,,,0.00,meteohub,2013-03-03 10:27:00,
2013-03-03 05:32:00,14.7,10.8,29.90,WNW,301,2.0,10.0,84,0.00,,,0.00,meteohub,2013-03-03 10:32:00,
2013-03-03 05:37:00,14.7,10.8,29.90,WNW,301,0.0,10.0,84,0.00,,,0.00,meteohub,2013-03-03 10:37:00,
2013-03-03 05:42:00,14.5,10.6,29.90,WNW,301,0.0,10.0,84,0.00,,,0.00,meteohub,2013-03-03 10:42:00,
2013-03-03 05:47:00,14.5,10.9,29.91,WNW,301,0.0,10.0,85,0.00,,,0.00,meteohub,2013-03-03 10:47:00,
2013-03-03 05:52:00,14.5,10.9,29.90,WNW,301,3.0,10.0,85,0.00,,,0.00,meteohub,2013-03-03 10:52:00,
2013-03-03 05:57:00,14.4,10.8,29.91,WNW,301,0.0,8.0,85,0.00,,,0.00,meteohub,2013-03-03 10:57:00,
2013-03-03 06:02:00,14.4,10.8,29.91,WNW,301,1.0,8.0,85,0.00,,,0.00,meteohub,2013-03-03 11:02:00,
2013-03-03 06:07:00,14.4,10.9,29.91,WNW,301,6.0,8.0,86,0.00,,,0.00,meteohub,2013-03-03 11:07:00,
2013-03-03 06:12:00,14.4,10.8,29.91,WNW,301,2.0,12.0,85,0.00,,,0.00,meteohub,2013-03-03 11:12:00,
2013-03-03 06:17:00,14.4,10.8,29.91,WNW,301,0.0,13.0,85,0.00,,,0.00,meteohub,2013-03-03 11:17:00,
2013-03-03 06:22:00,14.2,10.6,29.91,WNW,301,0.0,13.0,85,0.00,,,0.00,meteohub,2013-03-03 11:22:00,
2013-03-03 06:27:00,14.2,10.6,29.91,WNW,301,0.0,7.0,85,0.00,,,0.00,meteohub,2013-03-03 11:27:00,
2013-03-03 06:32:00,14.0,10.4,29.91,WNW,301,3.0,7.0,85,0.00,,,0.00,meteohub,2013-03-03 11:32:00,
2013-03-03 06:37:00,14.0,10.4,29.91,WNW,301,0.0,7.0,85,0.00,,,0.00,meteohub,2013-03-03 11:37:00,
2013-03-03 06:42:00,14.0,10.4,29.91,WNW,301,4.0,10.0,85,0.00,,,0.00,meteohub,2013-03-03 11:42:00,
2013-03-03 06:47:00,14.0,10.4,29.91,WNW,301,0.0,10.0,85,0.00,,,0.00,meteohub,2013-03-03 11:47:00,
2013-03-03 06:52:00,14.0,10.4,29.91,WNW,301,3.0,8.0,85,0.00,,,0.00,meteohub,2013-03-03 11:52:00,
2013-03-03 06:57:00,14.0,10.4,29.91,WNW,301,0.0,15.0,85,0.00,,,0.00,meteohub,2013-03-03 11:57:00,
2013-03-03 07:02:00,13.8,10.2,29.91,WNW,301,3.0,15.0,85,0.00,,,0.00,meteohub,2013-03-03 12:02:00,
2013-03-03 07:07:00,13.8,10.4,29.91,WNW,301,0.0,15.0,86,0.00,,,0.00,meteohub,2013-03-03 12:07:00,
2013-03-03 07:12:00,13.8,10.4,29.91,WNW,301,1.0,8.0,86,0.00,,,0.00,meteohub,2013-03-03 12:12:00,
2013-03-03 07:17:00,13.8,10.4,29.91,WNW,301,2.0,7.0,86,0.00,,,0.00,meteohub,2013-03-03 12:17:00,
2013-03-03 07:22:00,13.8,10.4,29.92,WNW,301,0.0,7.0,86,0.00,,,0.00,meteohub,2013-03-03 12:22:00,
2013-03-03 07:27:00,13.8,10.4,29.92,WNW,301,2.0,7.0,86,0.00,,,0.00,meteohub,2013-03-03 12:27:00,
2013-03-03 07:32:00,14.0,10.6,29.92,WNW,301,0.0,7.0,86,0.00,,,0.00,meteohub,2013-03-03 12:32:00,
2013-03-03 07:37:00,14.2,10.8,29.93,WNW,301,2.0,10.0,86,0.00,,,0.00,meteohub,2013-03-03 12:37:00,
2013-03-03 07:42:00,14.2,10.8,29.93,WNW,301,1.0,10.0,86,0.00,,,0.00,meteohub,2013-03-03 12:42:00,
2013-03-03 07:47:00,14.4,10.9,29.93,WNW,301,1.0,10.0,86,0.00,,,0.00,meteohub,2013-03-03 12:47:00,
2013-03-03 07:52:00,14.4,10.9,29.93,WNW,301,5.0,9.0,86,0.00,,,0.00,meteohub,2013-03-03 12:52:00,
2013-03-03 07:57:00,14.5,10.9,29.93,WNW,301,0.0,14.0,85,0.00,,,0.00,meteohub,2013-03-03 12:57:00,
2013-03-03 08:02:00,14.5,10.9,29.93,WNW,301,0.0,14.0,85,0.00,,,0.00,meteohub,2013-03-03 13:02:00,
2013-03-03 08:07:00,14.7,10.8,29.94,WNW,301,0.0,14.0,84,0.00,,,0.00,meteohub,2013-03-03 13:07:00,
2013-03-03 08:12:00,14.9,10.9,29.94,WNW,301,8.0,11.0,84,0.00,,,0.00,meteohub,2013-03-03 13:12:00,
2013-03-03 08:17:00,15.1,11.1,29.94,WNW,301,0.0,11.0,84,0.00,,,0.00,meteohub,2013-03-03 13:17:00,
2013-03-03 08:22:00,15.3,11.1,29.94,WNW,301,3.0,11.0,83,0.00,,,0.00,meteohub,2013-03-03 13:22:00,
2013-03-03 08:27:00,15.4,11.1,29.94,WNW,301,1.0,11.0,83,0.00,,,0.00,meteohub,2013-03-03 13:27:00,
2013-03-03 08:32:00,15.4,11.1,29.94,WNW,301,4.0,9.0,83,0.00,,,0.00,meteohub,2013-03-03 13:32:00,
2013-03-03 08:37:00,15.6,11.3,29.94,WNW,301,0.0,7.0,83,0.00,,,0.00,meteohub,2013-03-03 13:37:00,
2013-03-03 08:42:00,15.8,11.5,29.94,WNW,301,8.0,8.0,83,0.00,,,0.00,meteohub,2013-03-03 13:42:00,
2013-03-03 08:47:00,16.2,11.8,29.94,WNW,301,5.0,8.0,83,0.00,,,0.00,meteohub,2013-03-03 13:47:00,
2013-03-03 08:52:00,16.5,12.0,29.94,WNW,301,0.0,8.0,82,0.00,,,0.00,meteohub,2013-03-03 13:52:00,
2013-03-03 08:57:00,16.7,11.7,29.94,WNW,301,0.0,8.0,80,0.00,,,0.00,meteohub,2013-03-03 13:57:00,
2013-03-03 09:02:00,17.1,11.7,29.94,WNW,301,2.0,5.0,79,0.00,,,0.00,meteohub,2013-03-03 14:02:00,
2013-03-03 09:07:00,17.2,11.3,29.94,WNW,301,2.0,5.0,77,0.00,,,0.00,meteohub,2013-03-03 14:07:00,
2013-03-03 09:12:00,17.4,11.7,29.94,WNW,301,4.0,7.0,78,0.00,,,0.00,meteohub,2013-03-03 14:12:00,
2013-03-03 09:17:00,17.6,11.3,29.94,WNW,301,1.0,9.0,76,0.00,,,0.00,meteohub,2013-03-03 14:17:00,
2013-03-03 09:22:00,18.0,11.3,29.94,WNW,301,0.0,9.0,75,0.00,,,0.00,meteohub,2013-03-03 14:22:00,
2013-03-03 09:27:00,18.3,11.5,29.94,WNW,301,5.0,9.0,74,0.00,,,0.00,meteohub,2013-03-03 14:27:00,
2013-03-03 09:32:00,18.9,12.2,29.94,WNW,301,0.0,8.0,75,0.00,,,0.00,meteohub,2013-03-03 14:32:00,
2013-03-03 09:37:00,19.0,11.8,29.94,WNW,301,0.0,8.0,73,0.00,,,0.00,meteohub,2013-03-03 14:37:00,
2013-03-03 09:42:00,19.2,11.7,29.94,WNW,301,0.0,6.0,72,0.00,,,0.00,meteohub,2013-03-03 14:42:00,
2013-03-03 09:47:00,19.2,11.7,29.94,WNW,301,0.0,7.0,72,0.00,,,0.00,meteohub,2013-03-03 14:47:00,
2013-03-03 09:52:00,19.8,12.6,29.94,WNW,301,2.0,8.0,73,0.00,,,0.00,meteohub,2013-03-03 14:52:00,
2013-03-03 09:57:00,20.3,12.7,29.95,WNW,301,0.0,8.0,72,0.00,,,0.00,meteohub,2013-03-03 14:57:00,
2013-03-03 10:02:00,20.8,12.9,29.95,NW,313,1.0,9.0,71,0.00,,,0.00,meteohub,2013-03-03 15:02:00,
2013-03-03 10:07:00,20.8,12.6,29.95,NW,313,0.0,10.0,70,0.00,,,0.00,meteohub,2013-03-03 15:07:00,
2013-03-03 10:12:00,20.8,12.9,29.95,NW,313,0.0,10.0,71,0.00,,,0.00,meteohub,2013-03-03 15:12:00,
2013-03-03 10:17:00,21.2,12.6,29.95,NNW,335,0.0,10.0,69,0.00,,,0.00,meteohub,2013-03-03 15:17:00,
2013-03-03 10:22:00,21.4,12.7,29.95,NW,318,0.0,7.0,69,0.00,,,0.00,meteohub,2013-03-03 15:22:00,
2013-03-03 10:27:00,21.6,12.0,29.95,WNW,290,8.0,8.0,66,0.00,,,0.00,meteohub,2013-03-03 15:27:00,
2013-03-03 10:32:00,21.4,12.2,29.95,WNW,296,1.0,9.0,67,0.00,,,0.00,meteohub,2013-03-03 15:32:00,
2013-03-03 10:37:00,21.6,12.9,29.95,WNW,294,0.0,9.0,69,0.00,,,0.00,meteohub,2013-03-03 15:37:00,
2013-03-03 10:42:00,22.3,12.9,29.95,NNW,347,0.0,9.0,67,0.00,,,0.00,meteohub,2013-03-03 15:42:00,
2013-03-03 10:47:00,22.8,13.8,29.94,WNW,300,0.0,6.0,68,0.00,,,0.00,meteohub,2013-03-03 15:47:00,
2013-03-03 10:52:00,23.7,14.0,29.94,NW,308,0.0,0.0,66,0.00,,,0.00,meteohub,2013-03-03 15:52:00,
2013-03-03 10:57:00,24.1,14.0,29.95,NNW,327,0.0,8.0,65,0.00,,,0.00,meteohub,2013-03-03 15:57:00,
2013-03-03 11:02:00,24.3,13.8,29.95,NW,304,0.0,8.0,64,0.00,,,0.00,meteohub,2013-03-03 16:02:00,
2013-03-03 11:07:00,24.3,13.8,29.95,NNW,335,0.0,8.0,64,0.00,,,0.00,meteohub,2013-03-03 16:07:00,
2013-03-03 11:12:00,24.6,14.2,29.95,NNW,333,0.0,8.0,64,0.00,,,0.00,meteohub,2013-03-03 16:12:00,
2013-03-03 11:17:00,25.2,15.1,29.95,NW,307,0.0,7.0,65,0.00,,,0.00,meteohub,2013-03-03 16:17:00,
2013-03-03 11:22:00,25.2,14.0,29.95,WNW,292,0.0,4.0,62,0.00,,,0.00,meteohub,2013-03-03 16:22:00,
2013-03-03 11:27:00,24.6,13.1,29.96,NW,317,1.0,7.0,61,0.01,,,0.01,meteohub,2013-03-03 16:27:00,
2013-03-03 11:32:00,24.3,13.1,29.95,NNW,343,0.0,8.0,62,0.01,,,0.01,meteohub,2013-03-03 16:32:00,
2013-03-03 11:37:00,25.0,16.3,29.95,ESE,115,0.0,8.0,69,0.01,,,0.01,meteohub,2013-03-03 16:37:00,
2013-03-03 11:42:00,25.5,14.0,29.96,NW,305,0.0,8.0,61,0.01,,,0.01,meteohub,2013-03-03 16:42:00,
2013-03-03 11:47:00,26.2,16.5,29.95,North,354,0.0,5.0,66,0.01,,,0.01,meteohub,2013-03-03 16:47:00,
2013-03-03 11:52:00,27.1,17.2,29.95,North,353,0.0,4.0,66,0.01,,,0.01,meteohub,2013-03-03 16:52:00,
2013-03-03 11:57:00,27.3,15.6,29.95,NW,320,0.0,3.0,61,0.01,,,0.01,meteohub,2013-03-03 16:57:00,
2013-03-03 12:02:00,27.1,16.9,29.95,North,354,0.0,5.0,65,0.01,,,0.01,meteohub,2013-03-03 17:02:00,
2013-03-03 12:07:00,27.9,17.2,29.95,WNW,298,0.0,5.0,64,0.01,,,0.01,meteohub,2013-03-03 17:07:00,
2013-03-03 12:12:00,28.0,15.3,29.95,NNW,336,0.0,5.0,58,0.01,,,0.01,meteohub,2013-03-03 17:12:00,
2013-03-03 12:17:00,28.2,17.2,29.95,WNW,297,1.0,4.0,63,0.01,,,0.01,meteohub,2013-03-03 17:17:00,
2013-03-03 12:22:00,28.6,17.2,29.95,NW,316,0.0,3.0,62,0.01,,,0.01,meteohub,2013-03-03 17:22:00,
2013-03-03 12:27:00,28.8,16.7,29.95,ENE,59,0.0,3.0,60,0.00,,,0.01,meteohub,2013-03-03 17:27:00,
2013-03-03 12:32:00,28.8,15.8,29.95,NNW,328,1.0,3.0,58,0.01,,,0.02,meteohub,2013-03-03 17:32:00,
2013-03-03 12:37:00,28.8,19.2,29.95,SSE,148,3.0,5.0,67,0.01,,,0.02,meteohub,2013-03-03 17:37:00,
2013-03-03 12:42:00,29.5,16.9,29.95,WNW,299,0.0,5.0,59,0.01,,,0.02,meteohub,2013-03-03 17:42:00,
2013-03-03 12:47:00,29.5,16.9,29.95,NW,308,0.0,5.0,59,0.01,,,0.02,meteohub,2013-03-03 17:47:00,
2013-03-03 12:52:00,29.3,18.3,29.94,NW,314,2.0,5.0,63,0.01,,,0.02,meteohub,2013-03-03 17:52:00,
2013-03-03 12:57:00,28.8,17.8,29.95,NW,322,3.0,7.0,63,0.01,,,0.02,meteohub,2013-03-03 17:57:00,
2013-03-03 13:02:00,27.7,16.7,29.95,NNW,343,0.0,15.0,63,0.01,,,0.02,meteohub,2013-03-03 18:02:00,
2013-03-03 13:07:00,27.9,17.6,29.95,NW,325,7.0,15.0,65,0.01,,,0.02,meteohub,2013-03-03 18:07:00,
2013-03-03 13:12:00,27.1,16.2,29.95,NNW,331,6.0,15.0,63,0.01,,,0.02,meteohub,2013-03-03 18:12:00,
2013-03-03 13:17:00,27.0,17.1,29.95,NW,315,0.0,12.0,66,0.01,,,0.02,meteohub,2013-03-03 18:17:00,
2013-03-03 13:22:00,27.3,16.7,29.95,NW,323,6.0,12.0,64,0.01,,,0.02,meteohub,2013-03-03 18:22:00,
2013-03-03 13:27:00,27.1,17.2,29.95,NNW,341,0.0,10.0,66,0.01,,,0.02,meteohub,2013-03-03 18:27:00,
2013-03-03 13:32:00,27.7,17.1,29.95,NNW,339,2.0,10.0,64,0.00,,,0.02,meteohub,2013-03-03 18:32:00,
2013-03-03 13:37:00,27.9,18.0,29.94,NNW,348,0.0,11.0,66,0.00,,,0.02,meteohub,2013-03-03 18:37:00,
2013-03-03 13:42:00,28.0,17.4,29.94,NNW,330,0.0,11.0,64,0.00,,,0.02,meteohub,2013-03-03 18:42:00,
2013-03-03 13:47:00,28.9,18.0,29.94,NW,304,0.0,9.0,63,0.00,,,0.02,meteohub,2013-03-03 18:47:00,
2013-03-03 13:52:00,29.5,18.1,29.94,NNW,339,0.0,8.0,62,0.00,,,0.02,meteohub,2013-03-03 18:52:00,
2013-03-03 13:57:00,29.5,18.1,29.94,WNW,300,2.0,8.0,62,0.00,,,0.02,meteohub,2013-03-03 18:57:00,
2013-03-03 14:02:00,29.1,16.9,29.93,NNW,330,0.0,8.0,60,0.00,,,0.02,meteohub,2013-03-03 19:02:00,
2013-03-03 14:07:00,29.5,18.5,29.94,NW,304,2.0,10.0,63,0.00,,,0.02,meteohub,2013-03-03 19:07:00,
2013-03-03 14:12:00,29.7,19.0,29.94,NNW,337,0.0,10.0,64,0.00,,,0.02,meteohub,2013-03-03 19:12:00,
2013-03-03 14:17:00,29.8,17.2,29.94,NW,309,0.0,10.0,59,0.00,,,0.02,meteohub,2013-03-03 19:17:00,
2013-03-03 14:22:00,30.0,17.8,29.93,NW,318,1.0,7.0,60,0.00,,,0.02,meteohub,2013-03-03 19:22:00,
2013-03-03 14:27:00,30.0,17.8,29.93,NNW,333,0.0,6.0,60,0.00,,,0.02,meteohub,2013-03-03 19:27:00,
2013-03-03 14:32:00,30.6,18.3,29.93,North,4,0.0,6.0,60,0.00,,,0.02,meteohub,2013-03-03 19:32:00,
2013-03-03 14:37:00,30.4,18.5,29.93,NNW,329,1.0,6.0,61,0.00,,,0.02,meteohub,2013-03-03 19:37:00,
2013-03-03 14:42:00,30.2,18.0,29.93,NW,310,4.0,9.0,60,0.01,,,0.03,meteohub,2013-03-03 19:42:00,
2013-03-03 14:47:00,30.0,17.1,29.93,WNW,287,5.0,9.0,58,0.01,,,0.03,meteohub,2013-03-03 19:47:00,
2013-03-03 14:52:00,29.7,17.1,29.94,NW,316,5.0,13.0,59,0.01,,,0.03,meteohub,2013-03-03 19:52:00,
2013-03-03 14:57:00,30.0,19.0,29.94,NW,307,0.0,14.0,63,0.01,,,0.03,meteohub,2013-03-03 19:57:00,
2013-03-03 15:02:00,30.0,17.1,29.94,WNW,291,5.0,14.0,58,0.01,,,0.03,meteohub,2013-03-03 20:02:00,
2013-03-03 15:07:00,29.1,16.5,29.94,NW,306,3.0,12.0,59,0.01,,,0.03,meteohub,2013-03-03 20:07:00,
2013-03-03 15:12:00,28.6,16.9,29.94,NNW,332,4.0,16.0,61,0.01,,,0.03,meteohub,2013-03-03 20:12:00,
2013-03-03 15:17:00,29.1,18.9,29.94,NW,316,0.0,16.0,65,0.01,,,0.03,meteohub,2013-03-03 20:17:00,
2013-03-03 15:22:00,29.8,18.9,29.94,WNW,296,9.0,16.0,63,0.01,,,0.03,meteohub,2013-03-03 20:22:00,
2013-03-03 15:27:00,28.9,16.9,29.94,NW,310,0.0,11.0,60,0.01,,,0.03,meteohub,2013-03-03 20:27:00,
2013-03-03 15:32:00,28.9,18.0,29.94,NW,318,6.0,13.0,63,0.01,,,0.03,meteohub,2013-03-03 20:32:00,
2013-03-03 15:37:00,28.6,18.7,29.94,NW,326,2.0,13.0,66,0.00,,,0.03,meteohub,2013-03-03 20:37:00,
2013-03-03 15:42:00,28.6,17.6,29.94,WNW,288,15.0,15.0,63,0.00,,,0.03,meteohub,2013-03-03 20:42:00,
2013-03-03 15:47:00,27.9,17.6,29.95,NW,319,8.0,17.0,65,0.00,,,0.03,meteohub,2013-03-03 20:47:00,
2013-03-03 15:52:00,27.7,16.7,29.95,NW,320,3.0,17.0,63,0.00,,,0.03,meteohub,2013-03-03 20:52:00,
2013-03-03 15:57:00,27.5,16.9,29.95,WNW,290,8.0,16.0,64,0.00,,,0.03,meteohub,2013-03-03 20:57:00,
2013-03-03 16:02:00,27.9,17.2,29.95,WNW,303,7.0,15.0,64,0.00,,,0.03,meteohub,2013-03-03 21:02:00,
2013-03-03 16:07:00,27.7,16.7,29.94,NW,316,2.0,14.0,63,0.00,,,0.03,meteohub,2013-03-03 21:07:00,
2013-03-03 16:12:00,27.3,16.0,29.95,NNW,337,2.0,14.0,62,0.00,,,0.03,meteohub,2013-03-03 21:12:00,
2013-03-03 16:17:00,27.5,16.9,29.95,WNW,303,2.0,14.0,64,0.00,,,0.03,meteohub,2013-03-03 21:17:00,
2013-03-03 16:22:00,27.5,16.5,29.95,NW,322,0.0,13.0,63,0.00,,,0.03,meteohub,2013-03-03 21:22:00,
2013-03-03 16:27:00,27.3,16.0,29.95,WNW,290,9.0,11.0,62,0.00,,,0.03,meteohub,2013-03-03 21:27:00,
2013-03-03 16:32:00,27.0,16.0,29.96,NW,318,0.0,12.0,63,0.00,,,0.03,meteohub,2013-03-03 21:32:00,
2013-03-03 16:37:00,27.3,17.1,29.96,NW,313,1.0,12.0,65,0.00,,,0.03,meteohub,2013-03-03 21:37:00,
2013-03-03 16:42:00,27.3,16.3,29.96,NW,325,2.0,12.0,63,0.00,,,0.03,meteohub,2013-03-03 21:42:00,
2013-03-03 16:47:00,27.0,16.0,29.96,NW,308,5.0,10.0,63,0.00,,,0.03,meteohub,2013-03-03 21:47:00,
2013-03-03 16:52:00,26.2,15.8,29.96,WNW,293,7.0,15.0,64,0.00,,,0.03,meteohub,2013-03-03 21:52:00,
2013-03-03 16:57:00,26.2,15.8,29.96,WNW,303,0.0,15.0,64,0.00,,,0.03,meteohub,2013-03-03 21:57:00,
2013-03-03 17:02:00,26.1,15.6,29.96,NW,322,1.0,15.0,64,0.00,,,0.03,meteohub,2013-03-03 22:02:00,
2013-03-03 17:07:00,25.5,15.4,29.96,NNW,334,0.0,15.0,65,0.00,,,0.03,meteohub,2013-03-03 22:07:00,
2013-03-03 17:12:00,25.2,14.7,29.96,NW,307,2.0,12.0,64,0.00,,,0.03,meteohub,2013-03-03 22:12:00,
2013-03-03 17:17:00,25.0,14.9,29.96,WNW,300,2.0,13.0,65,0.00,,,0.03,meteohub,2013-03-03 22:17:00,
2013-03-03 17:22:00,24.6,14.9,29.96,NNE,20,0.0,14.0,66,0.00,,,0.03,meteohub,2013-03-03 22:22:00,
2013-03-03 17:27:00,24.8,15.1,29.96,NW,306,9.0,14.0,66,0.00,,,0.03,meteohub,2013-03-03 22:27:00,
2013-03-03 17:32:00,24.6,14.9,29.96,NNW,338,3.0,13.0,66,0.00,,,0.03,meteohub,2013-03-03 22:32:00,
2013-03-03 17:37:00,24.4,14.7,29.96,WNW,293,0.0,12.0,66,0.00,,,0.03,meteohub,2013-03-03 22:37:00,
2013-03-03 17:42:00,24.4,14.7,29.97,WNW,295,4.0,12.0,66,0.00,,,0.03,meteohub,2013-03-03 22:42:00,
2013-03-03 17:47:00,24.3,14.9,29.97,NNW,340,1.0,12.0,67,0.00,,,0.03,meteohub,2013-03-03 22:47:00,
2013-03-03 17:52:00,24.1,14.4,29.97,WNW,285,6.0,11.0,66,0.00,,,0.03,meteohub,2013-03-03 22:52:00,
2013-03-03 17:57:00,23.9,14.5,29.97,NW,312,0.0,11.0,67,0.00,,,0.03,meteohub,2013-03-03 22:57:00,
2013-03-03 18:02:00,23.2,13.8,29.97,NNW,334,2.0,10.0,67,0.00,,,0.03,meteohub,2013-03-03 23:02:00,
2013-03-03 18:07:00,22.3,13.3,29.97,NW,320,5.0,11.0,68,0.00,,,0.03,meteohub,2013-03-03 23:07:00,
2013-03-03 18:12:00,21.7,13.5,29.97,NW,304,1.0,16.0,70,0.00,,,0.03,meteohub,2013-03-03 23:12:00,
2013-03-03 18:17:00,21.2,13.3,29.98,NW,314,2.0,16.0,71,0.00,,,0.03,meteohub,2013-03-03 23:17:00,
2013-03-03 18:22:00,20.8,13.3,29.97,NW,312,8.0,16.0,72,0.00,,,0.03,meteohub,2013-03-03 23:22:00,
2013-03-03 18:27:00,20.7,13.5,29.97,NW,316,1.0,14.0,73,0.00,,,0.03,meteohub,2013-03-03 23:27:00,
2013-03-03 18:32:00,20.5,13.3,29.97,NW,316,2.0,15.0,73,0.00,,,0.03,meteohub,2013-03-03 23:32:00,
2013-03-03 18:37:00,20.3,13.1,29.97,NW,316,3.0,17.0,73,0.00,,,0.03,meteohub,2013-03-03 23:37:00,
2013-03-03 18:42:00,20.1,13.1,29.97,NW,316,0.0,17.0,74,0.00,,,0.03,meteohub,2013-03-03 23:42:00,
2013-03-03 18:47:00,19.9,12.9,29.97,NW,316,1.0,15.0,74,0.00,,,0.03,meteohub,2013-03-03 23:47:00,
2013-03-03 18:52:00,19.8,13.1,29.97,NW,316,6.0,18.0,75,0.00,,,0.03,meteohub,2013-03-03 23:52:00,
2013-03-03 18:57:00,19.6,12.9,29.98,NW,316,2.0,18.0,75,0.00,,,0.03,meteohub,2013-03-03 23:57:00,
2013-03-03 19:02:00,19.4,15.1,29.98,NW,316,6.0,18.0,83,0.00,,,0.03,meteohub,2013-03-04 00:02:00,
2013-03-03 19:07:00,19.2,12.9,29.98,NW,316,5.0,19.0,76,0.00,,,0.00,meteohub,2013-03-04 00:07:00,
2013-03-03 19:12:00,19.0,12.7,29.98,NW,316,4.0,20.0,76,0.00,,,0.00,meteohub,2013-03-04 00:12:00,
2013-03-03 19:17:00,19.0,13.1,29.99,NW,316,3.0,20.0,77,0.00,,,0.00,meteohub,2013-03-04 00:17:00,
2013-03-03 19:22:00,18.9,12.9,29.99,NW,316,11.0,20.0,77,0.00,,,0.00,meteohub,2013-03-04 00:22:00,
2013-03-03 19:27:00,18.9,12.9,29.99,NW,316,2.0,15.0,77,0.00,,,0.00,meteohub,2013-03-04 00:27:00,
2013-03-03 19:32:00,18.7,12.9,29.99,NW,316,4.0,15.0,78,0.00,,,0.00,meteohub,2013-03-04 00:32:00,
2013-03-03 19:37:00,18.7,12.7,29.99,NW,316,4.0,16.0,77,0.00,,,0.00,meteohub,2013-03-04 00:37:00,
2013-03-03 19:42:00,18.5,12.7,29.99,NW,316,0.0,16.0,78,0.00,,,0.00,meteohub,2013-03-04 00:42:00,
2013-03-03 19:47:00,18.3,12.6,29.99,NW,316,2.0,15.0,78,0.00,,,0.00,meteohub,2013-03-04 00:47:00,
2013-03-03 19:52:00,18.3,12.6,30.00,NW,316,3.0,14.0,78,0.00,,,0.00,meteohub,2013-03-04 00:52:00,
2013-03-03 19:57:00,18.1,12.4,30.00,NW,316,0.0,13.0,78,0.00,,,0.00,meteohub,2013-03-04 00:57:00,
2013-03-03 20:02:00,18.1,12.7,30.00,NW,316,0.0,13.0,79,0.00,,,0.00,meteohub,2013-03-04 01:02:00,
2013-03-03 20:07:00,18.0,12.6,30.00,NW,316,4.0,13.0,79,0.00,,,0.00,meteohub,2013-03-04 01:07:00,
2013-03-03 20:12:00,18.0,12.6,30.00,NW,316,2.0,13.0,79,0.00,,,0.00,meteohub,2013-03-04 01:12:00,
2013-03-03 20:17:00,18.0,12.6,30.00,NW,316,0.0,13.0,79,0.00,,,0.00,meteohub,2013-03-04 01:17:00,
2013-03-03 20:22:00,18.0,12.9,30.01,NW,316,4.0,9.0,80,0.00,,,0.00,meteohub,2013-03-04 01:22:00,
2013-03-03 20:27:00,17.8,12.7,30.00,NW,316,3.0,9.0,80,0.00,,,0.00,meteohub,2013-03-04 01:27:00,
2013-03-03 20:32:00,17.8,12.7,30.01,NW,316,0.0,12.0,80,0.00,,,0.00,meteohub,2013-03-04 01:32:00,
2013-03-03 20:37:00,17.8,12.9,30.01,NW,316,2.0,12.0,81,0.00,,,0.00,meteohub,2013-03-04 01:37:00,
2013-03-03 20:42:00,17.6,12.7,30.01,NW,316,0.0,12.0,81,0.00,,,0.00,meteohub,2013-03-04 01:42:00,
2013-03-03 20:47:00,17.6,12.7,30.01,NW,316,3.0,11.0,81,0.00,,,0.00,meteohub,2013-03-04 01:47:00,
2013-03-03 20:52:00,17.4,12.6,30.01,NW,316,3.0,11.0,81,0.00,,,0.00,meteohub,2013-03-04 01:52:00,
2013-03-03 20:57:00,17.4,12.6,30.01,NW,316,0.0,10.0,81,0.00,,,0.00,meteohub,2013-03-04 01:57:00,
2013-03-03 21:02:00,17.4,12.9,30.02,NW,316,2.0,11.0,82,0.00,,,0.00,meteohub,2013-03-04 02:02:00,
2013-03-03 21:07:00,17.4,12.9,30.02,NW,316,2.0,12.0,82,0.00,,,0.00,meteohub,2013-03-04 02:07:00,
2013-03-03 21:12:00,17.4,12.9,30.02,NW,316,0.0,13.0,82,0.00,,,0.00,meteohub,2013-03-04 02:12:00,
2013-03-03 21:17:00,17.2,12.9,30.02,NW,316,0.0,13.0,83,0.00,,,0.00,meteohub,2013-03-04 02:17:00,
2013-03-03 21:22:00,17.2,12.9,30.02,NW,316,0.0,13.0,83,0.00,,,0.00,meteohub,2013-03-04 02:22:00,
2013-03-03 21:27:00,17.2,12.9,30.02,NW,316,0.0,13.0,83,0.00,,,0.00,meteohub,2013-03-04 02:27:00,
2013-03-03 21:32:00,17.2,12.7,30.02,NW,316,0.0,13.0,82,0.00,,,0.00,meteohub,2013-03-04 02:32:00,
2013-03-03 21:37:00,17.2,12.7,30.01,NW,316,6.0,18.0,82,0.00,,,0.00,meteohub,2013-03-04 02:37:00,
2013-03-03 21:42:00,17.1,12.7,30.02,NW,316,1.0,18.0,83,0.00,,,0.00,meteohub,2013-03-04 02:42:00,
2013-03-03 21:47:00,17.1,12.7,30.01,NW,316,0.0,18.0,83,0.00,,,0.00,meteohub,2013-03-04 02:47:00,
2013-03-03 21:52:00,17.1,12.7,30.01,NW,316,0.0,13.0,83,0.00,,,0.00,meteohub,2013-03-04 02:52:00,
2013-03-03 21:57:00,17.1,12.7,30.01,NW,316,2.0,13.0,83,0.00,,,0.00,meteohub,2013-03-04 02:57:00,
2013-03-03 22:02:00,17.1,12.7,30.01,NW,316,0.0,11.0,83,0.00,,,0.00,meteohub,2013-03-04 03:02:00,
2013-03-03 22:07:00,17.1,12.7,30.01,NW,316,0.0,6.0,83,0.00,,,0.00,meteohub,2013-03-04 03:07:00,
2013-03-03 22:12:00,16.9,12.6,30.01,NW,316,0.0,7.0,83,0.00,,,0.00,meteohub,2013-03-04 03:12:00,
2013-03-03 22:17:00,17.1,12.6,30.01,NW,316,2.0,9.0,82,0.00,,,0.00,meteohub,2013-03-04 03:17:00,
2013-03-03 22:22:00,16.9,12.4,30.01,NW,316,1.0,9.0,82,0.00,,,0.00,meteohub,2013-03-04 03:22:00,
2013-03-03 22:27:00,17.1,12.6,30.01,NW,316,0.0,9.0,82,0.00,,,0.00,meteohub,2013-03-04 03:27:00,
2013-03-03 22:32:00,16.9,12.4,30.01,NW,316,0.0,9.0,82,0.00,,,0.00,meteohub,2013-03-04 03:32:00,
2013-03-03 22:37:00,16.9,12.4,30.01,NW,316,0.0,9.0,82,0.00,,,0.00,meteohub,2013-03-04 03:37:00,
2013-03-03 22:42:00,16.9,12.4,30.01,NW,316,1.0,5.0,82,0.00,,,0.00,meteohub,2013-03-04 03:42:00,
2013-03-03 22:47:00,16.7,11.8,30.02,NW,316,1.0,6.0,81,0.00,,,0.00,meteohub,2013-03-04 03:47:00,
2013-03-03 22:52:00,16.9,12.0,30.01,NW,316,4.0,7.0,81,0.00,,,0.00,meteohub,2013-03-04 03:52:00,
2013-03-03 22:57:00,16.9,12.0,30.01,NW,316,0.0,10.0,81,0.00,,,0.00,meteohub,2013-03-04 03:57:00,
2013-03-03 23:02:00,17.1,12.0,30.01,NW,316,2.0,14.0,80,0.00,,,0.00,meteohub,2013-03-04 04:02:00,
2013-03-03 23:07:00,17.1,12.0,30.01,NW,316,0.0,14.0,80,0.00,,,0.00,meteohub,2013-03-04 04:07:00,
2013-03-03 23:12:00,16.9,11.5,30.01,NW,316,0.0,14.0,79,0.00,,,0.00,meteohub,2013-03-04 04:12:00,
2013-03-03 23:17:00,16.9,11.5,30.01,NW,316,4.0,11.0,79,0.00,,,0.00,meteohub,2013-03-04 04:17:00,
2013-03-03 23:22:00,16.9,11.5,30.01,NW,316,0.0,10.0,79,0.00,,,0.00,meteohub,2013-03-04 04:22:00,
2013-03-03 23:27:00,16.9,11.5,30.01,NW,316,0.0,6.0,79,0.00,,,0.00,meteohub,2013-03-04 04:27:00,
2013-03-03 23:32:00,16.7,11.3,30.01,NW,316,0.0,6.0,79,0.00,,,0.00,meteohub,2013-03-04 04:32:00,
2013-03-03 23:37:00,16.7,11.3,30.01,NW,316,6.0,6.0,79,0.00,,,0.00,meteohub,2013-03-04 04:37:00,
2013-03-03 23:42:00,16.5,11.1,30.01,NW,316,0.0,6.0,79,0.00,,,0.00,meteohub,2013-03-04 04:42:00,
2013-03-03 23:47:00,16.7,11.3,30.00,NW,316,4.0,7.0,79,0.00,,,0.00,meteohub,2013-03-04 04:47:00,
2013-03-03 23:52:00,16.7,11.1,30.00,NW,316,0.0,7.0,78,0.00,,,0.00,meteohub,2013-03-04 04:52:00,
2013-03-03 23:57:00,16.5,10.9,30.00,NW,316,0.0,8.0,78,0.00,,,0.00,meteohub,2013-03-04 04:57:00,